| time (UTC) | temp C | wind direction | speed KPH | gust KPH | rain 1hr cm | rain 24hr cm | rain mn cm | humidity % | barometer mb |
| 20260507114939 | 11 | 38 | 0.0 | 0.0 | 0.00 | 1.04 | 0.53 | 87 | 1013.2 |
| 20260507113948 | 11 | 38 | 0.0 | 1.6 | 0.00 | 1.04 | 0.53 | 88 | 1013.0 |
| 20260507112918 | 11 | 38 | 0.0 | 0.0 | 0.00 | 1.04 | 0.53 | 89 | 1013.0 |
| 20260507110742 | 11 | 38 | 0.0 | 0.0 | 0.00 | 1.04 | 0.53 | 90 | 1013.1 |
| 20260507105745 | 11 | 38 | 0.0 | 0.0 | 0.00 | 1.04 | 0.53 | 91 | 1013.0 |
| 20260507104739 | 10 | 38 | 0.0 | 0.0 | 0.00 | 1.04 | 0.53 | 92 | 1012.9 |
| 20260507102555 | 11 | 38 | 0.0 | 0.0 | 0.00 | 1.04 | 0.53 | 92 | 1012.5 |
| 20260507101525 | 11 | 38 | 0.0 | 0.0 | 0.00 | 1.04 | 0.53 | 92 | 1012.4 |
| 20260507095437 | 11 | 38 | 0.0 | 0.0 | 0.00 | 1.04 | 0.53 | 91 | 1012.3 |
| 20260507094405 | 11 | 38 | 0.0 | 0.0 | 0.00 | 1.04 | 0.53 | 91 | 1012.3 |
| 20260507093351 | 11 | 38 | 0.0 | 0.0 | 0.00 | 1.04 | 0.53 | 90 | 1012.1 |
| 20260507091159 | 11 | 38 | 0.0 | 0.0 | 0.00 | 1.04 | 0.53 | 89 | 1012.4 |
| 20260507090154 | 11 | 38 | 0.0 | 0.0 | 0.00 | 1.04 | 0.53 | 89 | 1012.4 |
| 20260507085205 | 11 | 38 | 0.0 | 0.0 | 0.00 | 1.04 | 0.53 | 89 | 1012.1 |
| 20260507084228 | 11 | 38 | 0.0 | 0.0 | 0.00 | 1.04 | 0.53 | 89 | 1011.9 |
| 20260507083241 | 11 | 38 | 0.0 | 0.0 | 0.00 | 1.04 | 0.53 | 90 | 1011.9 |
| 20260507082253 | 11 | 38 | 0.0 | 0.0 | 0.00 | 1.04 | 0.53 | 90 | 1011.7 |
| 20260507081302 | 11 | 38 | 0.0 | 0.0 | 0.00 | 1.04 | 0.53 | 89 | 1011.4 |
| 20260507080323 | 11 | 38 | 0.0 | 0.0 | 0.00 | 1.04 | 0.53 | 88 | 1011.5 |
| 20260507075344 | 11 | 38 | 0.0 | 0.0 | 0.00 | 1.04 | 0.53 | 86 | 1011.3 |
| 20260507073229 | 11 | 38 | 1.6 | 8.0 | 0.00 | 1.04 | 0.53 | 86 | 1011.1 |
| 20260507072237 | 11 | 28 | 0.0 | 6.4 | 0.00 | 1.04 | 0.53 | 87 | 1011.2 |
| 20260507071252 | 11 | 30 | 0.0 | 4.8 | 0.00 | 1.04 | 0.53 | 88 | 1011.0 |
| 20260507070228 | 12 | 31 | 0.0 | 4.8 | 0.00 | 1.04 | 0.53 | 89 | 1011.0 |
| 20260507065211 | 12 | 32 | 0.0 | 3.2 | 0.00 | 1.04 | 0.53 | 89 | 1011.3 |
| 20260507064235 | 12 | 28 | 0.0 | 1.6 | 0.00 | 1.04 | 0.53 | 90 | 1011.3 |
| 20260507063249 | 12 | 27 | 0.0 | 1.6 | 0.00 | 1.04 | 0.53 | 90 | 1011.1 |
| 20260507062224 | 12 | 34 | 0.0 | 3.2 | 0.00 | 1.04 | 0.53 | 90 | 1010.9 |
| 20260507061159 | 12 | 36 | 0.0 | 1.6 | 0.00 | 1.04 | 0.53 | 90 | 1011.0 |
| 20260507060134 | 12 | 36 | 0.0 | 0.0 | 0.00 | 1.04 | 0.53 | 90 | 1011.3 |
| 20260507055146 | 12 | 36 | 0.0 | 1.6 | 0.00 | 1.04 | 0.53 | 90 | 1011.2 |
| 20260507054147 | 12 | 36 | 0.0 | 6.4 | 0.00 | 1.04 | 0.53 | 91 | 1011.3 |
| 20260507053122 | 12 | 32 | 0.0 | 0.0 | 0.10 | 1.04 | 0.53 | 91 | 1011.3 |
| 20260507052128 | 12 | 32 | 0.0 | 1.6 | 0.33 | 1.04 | 0.53 | 90 | 1011.4 |
| 20260507051106 | 13 | 32 | 0.0 | 1.6 | 1.40 | 0.94 | 0.48 | 90 | 1011.3 |
| 20260507050124 | 13 | 32 | 0.0 | 1.6 | 1.40 | 0.81 | 0.33 | 88 | 1011.5 |
| 20260507045115 | 13 | 32 | 0.0 | 3.2 | 1.30 | 0.56 | 0.10 | 84 | 1011.2 |
| 20260507044126 | 14 | 31 | 0.0 | 3.2 | 0.00 | 0.48 | 0.00 | 79 | 1011.1 |
| 20260507043128 | 15 | 32 | 0.0 | 4.8 | 0.00 | 0.48 | 0.00 | 79 | 1011.0 |
| 20260507042104 | 15 | 5 | 0.0 | 4.8 | 0.00 | 0.48 | 0.00 | 78 | 1011.2 |
| 20260507041035 | 15 | 33 | 0.0 | 1.6 | 0.00 | 0.48 | 0.00 | 78 | 1011.2 |
| 20260507040052 | 16 | 33 | 0.0 | 0.0 | 0.00 | 0.48 | 0.00 | 75 | 1010.6 |
| 20260507035031 | 16 | 33 | 0.0 | 1.6 | 0.00 | 0.48 | 0.51 | 74 | 1010.4 |
| 20260507034002 | 16 | 33 | 0.0 | 0.0 | 0.00 | 0.48 | 0.51 | 74 | 1010.1 |
| 20260507033004 | 16 | 33 | 0.0 | 1.6 | 0.00 | 0.48 | 0.51 | 73 | 1010.6 |
| 20260507031932 | 16 | 33 | 0.0 | 1.6 | 0.00 | 0.48 | 0.51 | 73 | 1010.5 |
| 20260507030907 | 16 | 30 | 0.0 | 1.6 | 0.00 | 0.48 | 0.51 | 74 | 1010.3 |
| 20260507025833 | 16 | 51 | 0.0 | 0.0 | 0.00 | 0.48 | 0.51 | 74 | 1010.3 |
| 20260507023705 | 17 | 65 | 0.0 | 4.8 | 0.00 | 0.48 | 0.51 | 79 | 1010.0 |
| 20260507022645 | 17 | 43 | 0.0 | 0.0 | 0.00 | 0.48 | 0.51 | 81 | 1009.8 |
| 20260507021615 | 17 | 346 | 0.0 | 3.2 | 0.00 | 0.48 | 0.51 | 80 | 1009.4 |
| 20260507020623 | 17 | 65 | 0.0 | 3.2 | 0.00 | 0.48 | 0.51 | 82 | 1009.6 |
| 20260507015620 | 18 | 26 | 0.0 | 0.0 | 0.00 | 0.48 | 0.51 | 81 | 1009.8 |
| 20260507014607 | 18 | 26 | 0.0 | 0.0 | 0.00 | 0.48 | 0.51 | 79 | 1009.5 |
| 20260507013630 | 18 | 107 | 0.0 | 0.0 | 0.00 | 0.48 | 0.51 | 80 | 1009.9 |
| 20260507012633 | 18 | 208 | 0.0 | 0.0 | 0.00 | 0.48 | 0.51 | 80 | 1009.7 |
| 20260507011635 | 18 | 102 | 0.0 | 0.0 | 0.00 | 0.48 | 0.51 | 84 | 1009.8 |
| 20260507010658 | 18 | 103 | 0.0 | 0.0 | 0.00 | 0.48 | 0.51 | 86 | 1009.8 |
| 20260507005626 | 18 | 103 | 0.0 | 0.0 | 0.00 | 0.48 | 0.51 | 85 | 1009.6 |
| 20260507004606 | 18 | 103 | 0.0 | 0.0 | 0.00 | 0.48 | 0.51 | 84 | 1009.4 |
| 20260507003559 | 18 | 103 | 0.0 | 0.0 | 0.00 | 0.48 | 0.51 | 85 | 1009.4 |
| 20260507002534 | 18 | 103 | 0.0 | 0.0 | 0.00 | 0.48 | 0.51 | 84 | 1009.4 |
| 20260507001529 | 18 | 103 | 0.0 | 0.0 | 0.00 | 0.48 | 0.51 | 84 | 1009.1 |
| 20260506233137 | 19 | 112 | 0.0 | 0.0 | 0.00 | 0.48 | 0.51 | 81 | 1008.8 |
| 20260506231007 | 19 | 148 | 0.0 | 3.2 | 0.00 | 0.48 | 0.51 | 80 | 1008.5 |
| 20260506225958 | 19 | 102 | 0.0 | 3.2 | 0.00 | 0.48 | 0.51 | 78 | 1008.5 |
| 20260506223821 | 19 | 126 | 0.0 | 0.0 | 0.00 | 0.48 | 0.51 | 79 | 1008.3 |
| 20260506222845 | 20 | 126 | 0.0 | 0.0 | 0.00 | 0.48 | 0.51 | 78 | 1008.5 |
| 20260506221850 | 20 | 126 | 0.0 | 0.0 | 0.00 | 0.48 | 0.51 | 76 | 1008.5 |
| 20260506220854 | 20 | 159 | 0.0 | 1.6 | 0.00 | 0.48 | 0.51 | 77 | 1008.6 |
| 20260506215828 | 20 | 96 | 0.0 | 1.6 | 0.00 | 0.48 | 0.51 | 78 | 1008.4 |
| 20260506214814 | 19 | 161 | 0.0 | 1.6 | 0.00 | 0.48 | 0.51 | 80 | 1008.5 |
| 20260506213739 | 20 | 80 | 0.0 | 6.4 | 0.00 | 0.48 | 0.51 | 78 | 1008.4 |
| 20260506210409 | 20 | 148 | 0.0 | 9.7 | 0.00 | 0.48 | 0.51 | 77 | 1008.1 |
| 20260506205334 | 20 | 164 | 0.0 | 0.0 | 0.00 | 0.48 | 0.51 | 78 | 1008.0 |
| 20260506204315 | 19 | 117 | 0.0 | 11.3 | 0.00 | 0.48 | 0.51 | 77 | 1007.7 |
| 20260506202146 | 20 | 134 | 1.6 | 11.3 | 0.00 | 0.48 | 0.51 | 75 | 1008.1 |
| 20260506201135 | 20 | 148 | 0.0 | 12.9 | 0.00 | 0.48 | 0.51 | 74 | 1007.9 |
| 20260506200142 | 20 | 155 | 1.6 | 12.9 | 0.00 | 0.48 | 0.51 | 73 | 1007.9 |
| 20260506194016 | 20 | 146 | 3.2 | 14.5 | 0.00 | 0.48 | 0.51 | 72 | 1008.0 |
| 20260506193039 | 20 | 165 | 1.6 | 14.5 | 0.00 | 0.48 | 0.51 | 75 | 1007.9 |
| 20260506192045 | 20 | 128 | 1.6 | 12.9 | 0.00 | 0.48 | 0.51 | 74 | 1008.0 |
| 20260506191019 | 20 | 181 | 1.6 | 11.3 | 0.00 | 0.48 | 0.51 | 74 | 1008.1 |
| 20260506185948 | 20 | 153 | 0.0 | 6.4 | 0.00 | 0.48 | 0.51 | 79 | 1008.2 |
| 20260506184927 | 19 | 101 | 0.0 | 12.9 | 0.00 | 0.48 | 0.51 | 79 | 1008.5 |
| 20260506183940 | 18 | 78 | 1.6 | 12.9 | 0.00 | 0.48 | 0.51 | 78 | 1008.6 |
| 20260506181747 | 18 | 194 | 1.6 | 12.9 | 0.00 | 0.48 | 0.51 | 83 | 1008.6 |
| 20260506180730 | 17 | 155 | 3.2 | 17.7 | 0.00 | 0.48 | 0.51 | 81 | 1008.8 |
| 20260506174603 | 17 | 192 | 4.8 | 17.7 | 0.00 | 0.48 | 0.51 | 83 | 1009.0 |
| 20260506172357 | 17 | 247 | 3.2 | 12.9 | 0.00 | 0.48 | 0.51 | 86 | 1008.9 |
| 20260506171342 | 17 | 140 | 3.2 | 12.9 | 0.00 | 0.48 | 0.51 | 87 | 1009.1 |
| 20260506165238 | 16 | 169 | 4.8 | 19.3 | 0.00 | 0.48 | 0.51 | 88 | 1009.1 |
| 20260506164235 | 16 | 147 | 4.8 | 17.7 | 0.00 | 0.48 | 0.51 | 88 | 1009.3 |
| 20260506163232 | 16 | 117 | 3.2 | 16.1 | 0.00 | 0.48 | 0.51 | 90 | 1009.3 |
| 20260506161040 | 16 | 144 | 3.2 | 14.5 | 0.00 | 0.48 | 0.51 | 90 | 1009.4 |
| 20260506160052 | 15 | 183 | 4.8 | 22.5 | 0.00 | 0.48 | 0.51 | 91 | 1009.4 |
| 20260506155028 | 15 | 74 | 4.8 | 22.5 | 0.00 | 0.48 | 0.51 | 91 | 1009.4 |
| 20260506154035 | 15 | 167 | 3.2 | 16.1 | 0.00 | 0.48 | 0.51 | 91 | 1009.6 |
| 20260506153036 | 15 | 130 | 1.6 | 17.7 | 0.00 | 0.48 | 0.51 | 91 | 1009.6 |
| 20260506152045 | 15 | 181 | 3.2 | 17.7 | 0.00 | 0.48 | 0.48 | 91 | 1009.5 |
| 20260506151043 | 15 | 128 | 3.2 | 19.3 | 0.00 | 0.48 | 0.48 | 91 | 1009.9 |
| 20260506150036 | 15 | 85 | 3.2 | 19.3 | 0.13 | 0.48 | 0.48 | 91 | 1010.1 |
| 20260506145027 | 15 | 63 | 1.6 | 11.3 | 0.13 | 0.46 | 0.48 | 91 | 1010.5 |
| 20260506144044 | 15 | 155 | 3.2 | 16.1 | 0.33 | 0.46 | 0.46 | 91 | 1010.3 |
| 20260506141956 | 15 | 175 | 1.6 | 25.7 | 0.23 | 0.36 | 0.38 | 90 | 1010.2 |
| 20260506140953 | 15 | 253 | 1.6 | 9.7 | 0.23 | 0.33 | 0.33 | 90 | 1010.1 |
| 20260506135959 | 15 | 185 | 0.0 | 8.0 | 0.33 | 0.30 | 0.30 | 90 | 1010.3 |
| 20260506134954 | 15 | 128 | 0.0 | 9.7 | 0.46 | 0.23 | 0.25 | 89 | 1010.4 |
| 20260506134000 | 15 | 151 | 1.6 | 12.9 | 0.41 | 0.15 | 0.15 | 89 | 1010.4 |
| 20260506132940 | 15 | 139 | 1.6 | 12.9 | 0.13 | 0.10 | 0.13 | 88 | 1010.9 |
| 20260506131954 | 15 | 153 | 0.0 | 8.0 | 0.10 | 0.10 | 0.10 | 88 | 1010.6 |
| 20260506131015 | 15 | 163 | 0.0 | 0.0 | 0.10 | 0.08 | 0.08 | 87 | 1010.5 |
| 20260506125957 | 16 | 132 | 0.0 | 6.4 | 0.10 | 0.08 | 0.08 | 86 | 1010.1 |
| 20260506124933 | 16 | 157 | 0.0 | 3.2 | 0.15 | 0.05 | 0.05 | 86 | 1010.1 |
| 20260506123918 | 16 | 140 | 0.0 | 8.0 | 0.00 | 0.03 | 0.03 | 84 | 1010.0 |
| 20260506122920 | 16 | 128 | 1.6 | 8.0 | 0.00 | 0.00 | 0.00 | 80 | 1010.2 |
| 20260506121937 | 16 | 145 | 1.6 | 8.0 | 0.00 | 0.00 | 0.00 | 79 | 1010.4 |
| 20260506120908 | 17 | 144 | 1.6 | 9.7 | 0.00 | 0.00 | 0.00 | 77 | 1010.5 |
| 20260506115845 | 17 | 161 | 1.6 | 12.9 | 0.00 | 0.00 | 0.00 | 75 | 1010.5 |